Погода Ростов Великий

Погода Ростов Великий : погода сейчас, прогноз погоды и архив. Всё, что Вы хотите узнать о погоде Ростов Великий!

Хотите узнать прогноз погоды Ростов Великий? Тогда Вам сюда: Погода Ростов Великий

Поиск расширенной информации на нашем сайте:

Полезная информация:

Другие новости

Новости СМИ2

Главная страница сайта

Новости сайта

03.07.2017

Напоминаем, что на нашем специализированном сайте Метеоцентр.Азия вы можете получить высокодетализированные автоматические прогнозы погоды по пунктам России, СНГ и мира в авиационном формате (включающие направление и скорость ветра, видимость, явления погоды, количество и форму облачности, нижнюю и верхнюю границу облачности).

Рекомендуем:

Погода Ростов Великий - сегодня

Время (UTC), дата Ветер
(°,м/с) 
Видим.   Явления Облачность Т
(°С)
Тd
(°С)
f(%) Тe
(°С)
Pmin
(гПа)
dP
(гПа)
Po
(мм)
O2
(г/м3)
Тmin Tmax R s Состояние
почвы
12 15.07.19 230 (ЮЗ) 10 км    8/3 600 м верхняя 
[Cu Sc|Cs]
+21.2 +8 43 +21  1010.2  -0.5  749  279           
15 15.07.19 350 (С) 10 км  в посл. час ливневой дождь  8/5 600 м кучево-дожд., средняя, верхняя 
[Cb cap|Ac trans|Ci fib]
+15.6 +13 85 +21  1010.8  -0.5  749  283    +22.2     
18 15.07.19 290 (З) 10 км  {ливн. осадки}  10/8 600 м кучево-дожд., средняя, верхняя 
[Cb cap|Ac trans|Ci fib]
+13.9 +12.3 90 +19  1011.6  0.7  750  285           
21 15.07.19 тихо ()   10 км  {ливн. осадки}  10/9 600 м кучево-дожд., верхняя 
[Cb cap|Ci fib]
+12.6 +11.6 94 +16  1011.3  -0.4  749  286           
00 16.07.19 340 (С) 10 км  {ливн. осадки}  3/3 600 м 
[Sc]
+10.6 +9.8 95 +13  1012.1  0.6  750  289           
03 16.07.19 тихо ()   10 км  {туман}  8/0 средняя, верхняя 
[Ac trans|Ci fib]
+11.3 +10.5 95 +13  1012.6  0.6  750  288  +9.4      мокрая 
06 16.07.19 100 (В) 10 км  {туман}  3/0 верхняя 
[Ci fib]
+17.5 +11.6 68 +22  1012.4  750  282           
09 16.07.19 170 (Ю) 10 км    3/3 600 м верхняя 
[Cu med, cong|Ci fib]
+20.8 +9.5 48 +21  1012  -0.3  750  279           
12 16.07.19 140 (ЮВ) 10 км    8/0 средняя 
[Cu med, cong|Ac trans]
+22.1 +9 43 +22  1011  -0.9  750  278           
15 16.07.19 160 (Ю) 10 км    9/4 600 м средняя 
[Sc|Ac und]
+21.4 +10.8 51 +24  1010.4  -0.7  749  278    +22.8       
18 16.07.19 010 (С) 10 км    10/0 средняя 
[Ac und]
+19.1 +12.7 66 +26  1010.4  749  280           
21 16.07.19 280 (З) 10 км    10/0 средняя 
[Ac und]
+14.9 +12.9 88 +21  1011.5  0.9  750  284           
00 17.07.19 070 (В) 10 км  в посл. час ливневой дождь  10/4 600 м кучево-дожд., средняя 
[Cb cap|Ac und]
+14.3 +13.2 93 +21  1010.3  -1.2  749  284           
03 17.07.19 тихо ()   10 км    10/5 600 м средняя 
[Sc|Ac und]
+14.5 +13.4 93 +21  1010  -0.3  749  284  +14.2      влажная 
06 17.07.19 140 (ЮВ) 10 км  {ливн. осадки}  10/4 600 м средняя 
[Sc|Ac und]
+18.3 +13.9 76 +27  1009.5  -0.3  748  280           
09 17.07.19 070 (В) 10 км    10/3 600 м верхняя 
[Cu Sc|Ci fib]
+23 +14.8 60 +31  1008.6  -0.7  748  275           
12 17.07.19 150 (ЮВ) 5-10{10}  4000 м  слаб. ливневой дождь  10/5 600 м кучево-дожд., верхняя 
[Cb cap|Ci fib]
+22.7 +11.2 48 +26  1008.2  -0.4  747  276           
15 17.07.19 130 (ЮВ) 6-11{11}  2000 м  ливневой дождь  10/10 600 м кучево-дожд. 
[Cb cap]
+18.4 +12.4 68 +23  1008.5  0.2  748  280    +24.2     
18 17.07.19 070 (В) 2{11}  10 км  {ливн. осадки}  10/10 600 м кучево-дожд. 
[Cb cap]
+16 +14.6 91 +25  1007.7  -1  747  281           
21 17.07.19 100 (В) 2000 м  ливневой дождь  10/10 600 м кучево-дожд. 
[Cb cap]
+16.1 +15.1 94 +25  1006.4  -1.2  746  281           
00 18.07.19 070 (В) 2000 м  ливневой дождь  10/10 600 м кучево-дожд. 
[Cb cap]
+15.5 +14.7 95 +25  1004.5  -1.9  745  281           
03 18.07.19 120 (ЮВ) 2000 м  ливневой дождь  10/10 600 м кучево-дожд. 
[Cb cap]
+16.2 +15.4 95 +27  1003.7  -0.8  744  280  +15.5    18    мокрая 
06 18.07.19 150 (ЮВ) 10 км  {ливн. осадки}  8/8 600 м кучево-дожд. 
[Cb cap]
+18.9 +16.1 84 +31  1003.8  -0.8  744  277           
09 18.07.19 210 (ЮЗ) 10 км  в посл. час ливневой дождь  10/10 600 м кучево-дожд. 
[Cb cap]
+19.5 +15.9 80 +31  1004.3  0.5  744  277           
12 18.07.19 180 (Ю) 10 км  {ливн. осадки}  6/6 600 м 
[Cu med, cong]
+23.4 +14.6 58 +32  1004.1  744  273           
Время (UTC), дата Ветер
(°,м/с) 
Видим.   Явления Облачность Т
(°С)
Тd
(°С)
f(%) Тe
(°С)
Pmin
(гПа)
dP
(гПа)
Po
(мм)
O2
(г/м3)
Тmin Tmax R s Состояние
почвы

Для получения пояснительной информации подведите курсор к названию столбца.

ПОГОДА Ростов Великий - архив

Всё, что Вы хотите узнать о погоде Ростов Великий - удобно и подробно!

Выберите нужную дату (начиная с 1 января 2018* года) и нажмите кнопку "Найти".
Будут отображены архивные сводки погоды по пункту Ростов Великий, начиная с указанной даты.


Отображать данные в формате CSV (для использования в таблицах Excel)


Внимание! Наш архив погоды предназначен исключительно для личного некоммерческого использования в познавательных целях. Если Вам необходимы официальные справки о состоянии погоды (для производственных, юридических, коммерческих и т.п. целей), обращайтесь в органы Росгидромета.

*Примечание: данная дата относится к архиву по метеостанциям СССР (Россия, СНГ, Балтия).
Архив по метеостанциям Зарубежной Европы и Азии (кроме Китая) хранится 10 дней, по другим регионам земного шара (Китай, Африка, Америка, Австралия, Океания) - 1 день.

Ростов Великий - район местоположения метеостанции


Название, широта, долгота, высота метеостанции:
Ростов Великий 57.2°ш. 39.4°д. 101 м над ур. моря [Российская Федерация]

Дополнительная информация

В oтличие oт бoльшинства пoгoдных сайтoв мы публикуем пoдрoбную метеoинфoрмацию в детальнoм прoфессиoнальнoм фoрмате.

Характеристики температуры и влажнoсти вoздуха измеряются на высoте 2 м в тени вдали oт зданий и деревьев.
Скoрoсть ветра измеряется на высoте 10 м (на урoвне рoста челoвека скoрoсть ветра ниже в 1.5-2 раза). Если метеoстанция нахoдится в гoрoде или в лесу, тo скoрoсть ветра занижена на 2-4 м/с пo сравнению с oткрытым местoм. Скoрoсть ветра над акватoриями крупных рек и oзёр, а также на вершинах хoлмoв на 2-5 м/с выше, чем в oбычных услoвиях.
Атмoсфернoе давление в разных тoчках местнoсти мoжет значительнo oтличаться oт давления на метеoстанции, в зависимoсти oт услoвий рельефа (при пoдъёме на 10 м давление пoнижается примернo на 1 мм рт.ст.).